Weather History for Pauls Valley, OK

Change the Weather History Date:

Thursday, November 29, 2012

  Actual Average (KADH) Record (KADH)
Temperature  
Mean Temperature 55 °F -  
Max Temperature 68 °F 57 °F 83 °F (1927)
Min Temperature 42 °F 32 °F 10 °F (1976)
Degree Days  
Heating Degree Days 10    
Growing Degree Days 5 (Base 50)    
Moisture  
Dew Point 36 °F    
Average Humidity 54    
Maximum Humidity 76    
Minimum Humidity 26    
Precipitation  
Precipitation 0.00 in - - ()
Sea Level Pressure  
Sea Level Pressure 30.12 in    
Wind  
Wind Speed 12 mph (SSE)    
Max Wind Speed 21 mph    
Max Gust Speed 26 mph    
Visibility 10 miles    
Events      
Averages and records for this station are not official NWS values.
T = Trace of Precipitation, MM = Missing Value Source: NWS Daily Summary

Daily Weather History Graph

Daily Weather History Graph

Search for Another Location

Airport:

Trip Planner

Search our weather history database for the weather conditions in past years. The results will help you decide how hot, cold, wet, or windy it might be!

Date:

Astronomy

Nov. 29, 2012 Rise Set
Actual Time 7:16 AM CST 5:18 PM CST
Civil Twilight 6:48 AM CST 5:45 PM CST
Nautical Twilight 6:17 AM CST 6:16 PM CST
Astronomical Twilight 5:47 AM CST 6:47 PM CST
Moon 6:22 PM CST (11/29) 8:03 AM CST (11/29)
Length of Visible Light 10h 56m
Length of Day
10h 01m
Full, 99% of the Moon is Illuminated
Nov 29
Full
Dec 6
Last Quarter
Dec 13
New
Dec 19
First Quarter
Dec 28
Full

Hourly Weather History & Observations

Time (CST) Temp. Windchill Dew Point Humidity Pressure Visibility Wind Dir Wind Speed Gust Speed Precip Events Conditions
12:15 AM 46.4 °F 41.5 °F 33.8 °F 62% 30.21 in 10.0 mi South 10.4 mph - N/A   Unknown
12:35 AM 46.4 °F 41.5 °F 33.8 °F 62% 30.21 in 10.0 mi South 10.4 mph - N/A   Unknown
12:55 AM 46.4 °F 41.1 °F 33.8 °F 62% 30.21 in 10.0 mi South 11.5 mph - N/A   Unknown
1:15 AM 46.4 °F 41.5 °F 33.8 °F 62% 30.20 in 10.0 mi SSE 10.4 mph - N/A   Unknown
1:35 AM 44.6 °F 38.8 °F 33.8 °F 66% 30.20 in 10.0 mi SSE 11.5 mph - N/A   Unknown
1:55 AM 44.6 °F 38.8 °F 33.8 °F 66% 30.19 in 10.0 mi SSE 11.5 mph - N/A   Unknown
2:15 AM 46.4 °F 40.7 °F 33.8 °F 62% 30.19 in 10.0 mi SSE 12.7 mph - N/A   Unknown
2:35 AM 46.4 °F 40.7 °F 33.8 °F 62% 30.19 in 10.0 mi SSE 12.7 mph - N/A   Unknown
2:55 AM 44.6 °F 39.2 °F 33.8 °F 66% 30.19 in 10.0 mi SSE 10.4 mph - N/A   Unknown
3:15 AM 44.6 °F 39.2 °F 33.8 °F 66% 30.19 in 10.0 mi SSE 10.4 mph 16.1 mph N/A   Unknown
3:35 AM 44.6 °F 38.8 °F 33.8 °F 66% 30.18 in 10.0 mi SSE 11.5 mph - N/A   Unknown
3:55 AM 44.6 °F 38.8 °F 33.8 °F 66% 30.18 in 10.0 mi SSE 11.5 mph - N/A   Unknown
4:15 AM 44.6 °F 38.8 °F 33.8 °F 66% 30.18 in 10.0 mi SSE 11.5 mph - N/A   Unknown
4:35 AM 44.6 °F 39.7 °F 33.8 °F 66% 30.17 in 10.0 mi SSE 9.2 mph - N/A   Unknown
4:55 AM 42.8 °F 38.6 °F 33.8 °F 70% 30.17 in 10.0 mi SSE 6.9 mph - N/A   Unknown
5:15 AM 42.8 °F 39.3 °F 33.8 °F 70% 30.17 in 10.0 mi SSE 5.8 mph - N/A   Unknown
5:35 AM 42.8 °F 38.0 °F 35.6 °F 76% 30.18 in 10.0 mi SSE 8.1 mph - N/A   Unknown
5:55 AM 42.8 °F 38.6 °F 35.6 °F 76% 30.18 in 10.0 mi SSE 6.9 mph - N/A   Unknown
6:15 AM 42.8 °F 36.6 °F 33.8 °F 70% 30.18 in 10.0 mi SSE 11.5 mph - N/A   Unknown
6:35 AM 42.8 °F 36.6 °F 35.6 °F 76% 30.18 in 10.0 mi SSE 11.5 mph - N/A   Unknown
6:55 AM 42.8 °F 37.5 °F 35.6 °F 76% 30.18 in 10.0 mi SSE 9.2 mph - N/A   Unknown
7:15 AM 42.8 °F 38.0 °F 35.6 °F 76% 30.19 in 10.0 mi SSE 8.1 mph - N/A   Unknown
7:35 AM 42.8 °F 37.5 °F 35.6 °F 76% 30.19 in 10.0 mi SE 9.2 mph - N/A   Unknown
7:55 AM 42.8 °F 37.5 °F 35.6 °F 76% 30.18 in 10.0 mi SSE 9.2 mph - N/A   Unknown
8:15 AM 42.8 °F 36.6 °F 35.6 °F 76% 30.18 in 10.0 mi SSE 11.5 mph - N/A   Unknown
8:35 AM 44.6 °F 38.4 °F 35.6 °F 71% 30.18 in 10.0 mi SSE 12.7 mph 17.3 mph N/A   Unknown
8:55 AM 46.4 °F 41.5 °F 37.4 °F 71% 30.18 in 10.0 mi SSE 10.4 mph - N/A   Unknown
9:15 AM 46.4 °F 39.8 °F 37.4 °F 71% 30.17 in 10.0 mi SSE 16.1 mph - N/A   Unknown
9:35 AM 50.0 °F - 37.4 °F 62% 30.18 in 10.0 mi South 13.8 mph 21.9 mph N/A   Unknown
10:15 AM 55.4 °F - 41.0 °F 58% 30.17 in 10.0 mi South 16.1 mph - N/A   Unknown
10:35 AM 59.0 °F - 41.0 °F 51% 30.16 in 10.0 mi South 17.3 mph - N/A   Unknown
10:55 AM 59.0 °F - 41.0 °F 51% 30.17 in 10.0 mi SSW 17.3 mph 23.0 mph N/A   Unknown
11:15 AM 60.8 °F - 41.0 °F 48% 30.16 in 10.0 mi South 13.8 mph - N/A   Unknown
11:35 AM 60.8 °F - 41.0 °F 48% 30.15 in 10.0 mi South 12.7 mph 19.6 mph N/A   Unknown
11:55 AM 60.8 °F - 41.0 °F 48% 30.13 in 10.0 mi South 13.8 mph 20.7 mph N/A   Unknown
12:15 PM 62.6 °F - 41.0 °F 45% 30.12 in 10.0 mi South 16.1 mph 20.7 mph N/A   Unknown
12:35 PM 62.6 °F - 41.0 °F 45% 30.11 in 10.0 mi SSE 17.3 mph 23.0 mph N/A   Unknown
12:55 PM 64.4 °F - 41.0 °F 42% 30.10 in 10.0 mi South 18.4 mph - N/A   Unknown
1:15 PM 66.2 °F - 39.2 °F 37% 30.09 in 10.0 mi South 16.1 mph 24.2 mph N/A   Unknown
1:35 PM 66.2 °F - 37.4 °F 35% 30.08 in 10.0 mi South 17.3 mph 23.0 mph N/A   Unknown
1:55 PM 68.0 °F - 37.4 °F 33% 30.06 in 10.0 mi South 19.6 mph 23.0 mph N/A   Unknown
2:15 PM 68.0 °F - 37.4 °F 33% 30.05 in 10.0 mi SSE 17.3 mph 23.0 mph N/A   Unknown
2:35 PM 68.0 °F - 33.8 °F 28% 30.04 in 10.0 mi South 20.7 mph 26.5 mph N/A   Unknown
2:55 PM 68.0 °F - 33.8 °F 28% 30.04 in 10.0 mi SSE 18.4 mph - N/A   Unknown
3:15 PM 68.0 °F - 33.8 °F 28% 30.03 in 10.0 mi SSE 19.6 mph 23.0 mph N/A   Unknown
3:35 PM 68.0 °F - 32.0 °F 26% 30.03 in 10.0 mi SSE 19.6 mph 23.0 mph N/A   Unknown
3:55 PM 68.0 °F - 32.0 °F 26% 30.03 in 10.0 mi South 13.8 mph - N/A   Unknown
4:15 PM 66.2 °F - 32.0 °F 28% 30.03 in 10.0 mi SSE 10.4 mph 21.9 mph N/A   Unknown
4:35 PM 64.4 °F - 32.0 °F 30% 30.03 in 10.0 mi SSE 16.1 mph 21.9 mph N/A   Unknown
4:55 PM 62.6 °F - 32.0 °F 32% 30.03 in 10.0 mi SSE 15.0 mph 19.6 mph N/A   Unknown
5:15 PM 60.8 °F - 32.0 °F 34% 30.04 in 10.0 mi South 11.5 mph 19.6 mph N/A   Unknown
5:35 PM 60.8 °F - 32.0 °F 34% 30.04 in 10.0 mi SSE 10.4 mph 20.7 mph N/A   Unknown
5:55 PM 59.0 °F - 33.8 °F 39% 30.05 in 10.0 mi SSE 10.4 mph - N/A   Unknown
6:15 PM 59.0 °F - 32.0 °F 36% 30.05 in 10.0 mi SSE 9.2 mph - N/A   Unknown
6:35 PM 57.2 °F - 32.0 °F 38% 30.05 in 10.0 mi SSE 10.4 mph - N/A   Unknown
6:55 PM 55.4 °F - 32.0 °F 41% 30.05 in 10.0 mi SSE 10.4 mph - N/A   Unknown
7:15 PM 55.4 °F - 32.0 °F 41% 30.05 in 10.0 mi SSE 10.4 mph - N/A   Unknown
7:35 PM 55.4 °F - 33.8 °F 44% 30.06 in 10.0 mi SSE 9.2 mph - N/A   Unknown
7:55 PM 55.4 °F - 33.8 °F 44% 30.06 in 10.0 mi SSE 9.2 mph - N/A   Unknown
8:15 PM 53.6 °F - 35.6 °F 51% 30.06 in 10.0 mi SSE 10.4 mph - N/A   Unknown
8:35 PM 53.6 °F - 35.6 °F 51% 30.07 in 10.0 mi SSE 10.4 mph - N/A   Unknown
8:55 PM 53.6 °F - 37.4 °F 54% 30.06 in 10.0 mi SSE 11.5 mph - N/A   Unknown
9:15 PM 53.6 °F - 37.4 °F 54% 30.07 in 10.0 mi SSE 9.2 mph - N/A   Unknown
9:35 PM 51.8 °F - 37.4 °F 58% 30.08 in 10.0 mi SSE 11.5 mph - N/A   Unknown
9:55 PM 51.8 °F - 37.4 °F 58% 30.08 in 10.0 mi SSE 8.1 mph - N/A   Unknown
10:15 PM 51.8 °F - 37.4 °F 58% 30.09 in 10.0 mi SSE 5.8 mph - N/A   Unknown
10:35 PM 51.8 °F - 37.4 °F 58% 30.08 in 10.0 mi SSE 9.2 mph - N/A   Unknown
10:55 PM 50.0 °F - 39.2 °F 66% 30.09 in 10.0 mi SSE 8.1 mph - N/A   Unknown
11:15 PM 51.8 °F - 39.2 °F 62% 30.08 in 10.0 mi SSE 9.2 mph - N/A   Unknown
11:35 PM 51.8 °F - 41.0 °F 67% 30.08 in 10.0 mi SSE 10.4 mph - N/A   Unknown
11:55 PM 51.8 °F - 41.0 °F 67% 30.08 in 10.0 mi SSE 9.2 mph - N/A   Unknown